Location: Caltech
(34.1382°N, 118.1253°W)
Time: 20:38:50
(UTC-07:00)

Aureole 3 Rocket - Visible Passes

Search period start: 31 May 2016 00:00
Search period end: 10 June 2016 00:00
Orbit: 399 x 1747 km, 82.5° (Epoch: 31 May)

Date Brightness Start Highest point End Pass type
(mag) Time Alt. Az. Time Alt. Az. Time Alt. Az.
31 May 7.0 00:15:46 10° NE 00:18:14 11° ENE 00:20:49 10° E visible
31 May 5.2 01:58:13 10° N 02:06:40 64° E 02:10:43 39° SSE visible
31 May 5.9 03:46:44 10° NNW 03:53:51 29° W 03:57:27 23° WSW visible
01 Jun 6.1 01:06:13 10° NNE 01:13:54 34° ENE 01:18:11 25° ESE visible
01 Jun 5.1 02:53:03 10° NNW 03:01:30 57° W 03:04:54 41° SW visible
02 Jun 6.8 00:15:33 10° NE 00:20:45 16° ENE 00:25:39 11° ESE visible
02 Jun 5.0 02:00:09 10° N 02:08:59 79° E 02:12:23 48° SSE visible
02 Jun 6.2 03:49:24 10° NW 03:55:56 23° W 03:59:07 20° WSW visible
03 Jun 5.8 01:07:53 10° N 01:16:17 43° E 01:19:54 33° ESE visible
03 Jun 5.4 02:55:19 10° NNW 03:03:44 46° W 03:06:38 38° SW visible
04 Jun 6.6 00:16:32 10° NNE 00:23:14 22° ENE 00:27:27 17° ESE visible
04 Jun 5.0 02:02:11 10° N 02:11:18 84° W 02:14:10 55° S visible
04 Jun 6.4 03:52:23 10° NW 03:57:57 18° W 04:00:55 15° WSW visible
05 Jun 5.5 01:09:41 10° N 01:18:40 54° E 01:21:45 43° SE visible
05 Jun 5.7 02:57:42 10° NNW 03:05:54 37° W 03:08:29 32° WSW visible
06 Jun 6.3 00:17:55 10° NNE 00:25:43 29° ENE 00:29:20 24° ESE visible
06 Jun 5.1 02:04:20 10° NNW 02:13:35 69° W 02:16:04 54° SSW visible
06 Jun 6.7 03:55:59 10° NW 03:59:54 13° WNW 04:02:49 11° W visible
06 Jun 6.9 23:27:53 10° NE 23:32:17 14° ENE 23:36:52 10° E visible
07 Jun 5.2 01:11:37 10° N 01:21:02 68° E 01:23:41 53° SE visible
07 Jun 6.0 03:00:16 10° NNW 03:08:01 29° W 03:10:25 27° WSW visible
08 Jun 6.0 00:19:33 10° NNE 00:28:10 37° ENE 00:31:18 31° ESE visible
08 Jun 5.3 02:06:35 10° NNW 02:15:50 56° W 02:18:03 49° SW visible
08 Jun 6.7 23:28:34 10° NNE 23:34:53 19° ENE 23:38:56 15° E visible
09 Jun 5.1 01:13:40 10° N 01:23:23 83° E 01:25:41 61° SSE visible
09 Jun 6.3 03:03:03 10° NW 03:10:03 23° W 03:12:26 21° W visible
